Simultaneous Nadir Overpasses (SNOs) Predictions

Prediction of SNOs between NOAA-20 and METOP-B Satellite Orbit:

Table of predicted SNOs for the next 14.0 days since TLE Epoch: 8/30/2021
Index Date (NOAA-20) Time (NOAA-20) Lat,Lon (NOAA-20) SZA (NOAA-20 ) Date (METOP-B) Time (METOP-B) Lat,Lon (METOP-B) SZA (METOP-B ) Distance(km) Time Diff (sec)
1 09/13/2021 13:13:26 -73.41, 151.94 110.06 09/13/2021 13:14:33 -73.36, 154.74 110.23 89.24 67
2 09/13/2021 14:04:08 73.22, -40.33 69.75 09/13/2021 14:05:17 73.14, -38.42 69.58 62.31 69
3 09/13/2021 14:54:50 -73.12, 127.21 110.35 09/13/2021 14:56:00 -73.09, 128.80 110.46 51.33 70
4 09/13/2021 15:45:32 72.93, -65.07 69.46 09/13/2021 15:46:44 72.86, -64.35 69.35 24.62 72
5 09/13/2021 16:36:14 -72.82, 102.47 110.65 09/13/2021 16:37:28 -72.76, 102.77 110.73 11.89 74
6 09/13/2021 17:26:57 72.73, -90.03 69.27 09/13/2021 17:28:07 72.74, -89.94 69.27 3.02 70
7 09/13/2021 18:17:41 -72.73, 77.29 110.72 09/13/2021 18:18:49 -72.74, 77.39 110.72 3.56 68



Historial Predications of SNOs between NOAA-20 and METOP-B
